300  
ASUS41 KGYX 261305  
RWRGYX  
WEATHER ROUNDUP FOR MAINE AND NEW HAMPSHIRE  
NATIONAL WEATHER SERVICE GRAY ME  
800 AM EST TUE JAN 26 2021  
 
MEZ002-005-006-010-012-015-018-020-021-024-026-027-029-261400-  
MAINE  
 
CITY SKY/WX TMP DP RH WIND PRES REMARKS
 
PORTLAND CLEAR 18 12 77 CALM 30.10R  
SANFORD CLEAR 14 11 87 CALM 30.09R FOG  
BAR HARBOR PTCLDY 19 14 81 NW5 30.06R  
WISCASSET CLEAR 13 10 88 CALM 30.11R  
ROCKLAND CLEAR 21 13 71 VRB3 30.08R  
FRYEBURG CLEAR 5 1 83 CALM 30.08R  
LEWISTONAUBURN CLEAR 13 6 74 CALM 30.09R  
AUGUSTA CLEAR 14 9 80 NW6 30.08R  
WATERVILLE CLEAR 11 9 92 CALM 30.06R  
BANGOR CLOUDY 15 9 76 NW5 30.07R  
GREENVILLE N/A 14 6 70 N12 29.97R WCI 0  
MILLINOCKET CLOUDY 17 10 74 NW3 30.06R  
HOULTON CLOUDY 22 16 78 N7 30.02R  
PRESQUE ISLE CLOUDY 22 17 81 NW5 30.05R  
FRENCHVILLE CLOUDY 18 14 84 NW13 30.00R WCI 5  
CARIBOU CLOUDY 21 15 78 NW6 30.02R  

 
 
NHZ002-005-008-009-011-012-014-261400-  
NEW HAMPSHIRE  
 
CITY SKY/WX TMP DP RH WIND PRES REMARKS
 
PORTSMOUTH PTCLDY 18 12 78 CALM 30.07S  
ROCHESTER CLEAR 19 12 74 CALM 30.07R  
NASHUA CLEAR 15 15 100 NW3 30.09R  
MANCHESTER PTCLDY 20 13 74 N5 30.07R  
CONCORD CLEAR 14 9 80 CALM 30.08R  
LACONIA CLEAR 16 13 88 CALM 30.06S  
PLYMOUTH FAIR 15 12 88 N6 30.07S  
BERLIN CLOUDY 1 -3 83 CALM 30.08R FOG  
WHITEFIELD CLOUDY 5 1 83 CALM 30.08R  
JAFFREY CLEAR 10 6 84 CALM 30.02S  
KEENE CLEAR 9 6 88 CALM 30.09R  
LEBANON CLOUDY 15 10 80 S3 30.09S  
MT WASHINGTON PTCLDY 10 -11 37 NW14 N/A WCI -5  

 
 
VTZ005-007-008-261400-  
VERMONT  
 
CITY SKY/WX TMP DP RH WIND PRES REMARKS
 
ST JOHNSBURY N/A 12 7 80 MISG 30.09S  
MONTPELIER CLOUDY 12 11 95 CALM 30.08F  
BURLINGTON MOCLDY 20 13 74 CALM 30.08F  

 
 
MAZ007-012-024-CTZ003-RIZ002-NYZ038-NYZ072-261400-  
SOUTHERN NEW ENGLAND AND NY  
 
CITY SKY/WX TMP DP RH WIND PRES REMARKS
 
BOSTON PTCLDY 23 14 68 N8 30.09R  
WORCESTER CLEAR 23 12 62 NE8 30.01S  
NANTUCKET MOCLDY 31 24 75 N12 30.04F  
PROVIDENCE MOCLDY 27 15 61 N8 30.07R  
HARTFORD MOCLDY 24 14 65 N7 30.07R  
ALBANY MOCLDY 15 11 83 NW7 30.06S  
NEW YORK CITY CLOUDY 34 18 52 NE12 30.03R  

 
 
ANZ081-ANZ082-ANZ150-NHZ014-MEZ023>029-261400-  
COASTAL MARINE OBSERVATIONS  
 
STATION/POSITION TIME TEMP WIND PRES WAVE
 
AIR SEA DIR/SP/G HT/PER  
(UTC) (F) (DEG/KT/KT) (MB) (FT/S)  
MOUNT DESERT ROC 1200 340/ 17/ 19 1016.5R  
ISLE OF SHOALS 1200 27 10/ 9/ 10 1018.4F  
JEFFREYS LEDGE 1226 43 N/A 3/ 5  
CASHES LEDGE BUO 1250 30 45 360/ 16/ 19 1018.4R 4/ 5  

 
   
............KEY...........
 
 
WCI - WIND CHILL  
TC - TEMPERATURE IN CELSIUS  
VSB - VISIBILITY
IN MILES  
HX - HEAT INDEX  
FAIR- INDICATES FEW OR NO CLOUDS BELOW 12,000 FT, WITH NO  
SIGNIFICANT WEATHER AND/OR S TO VISIBILITY.  
 
 
 
CLICK HERE TO GO TO PREVIOUS BULLETINS.

The Nexlab ME Page
The Nexlab NH Page Main Text Page